STARLINK-3925, 52498

Orbit data source: Space-Track

STARLINK-3925, 52498 is a payload satellite owned by SpaceX/Seattle (US) in LEO that was launched on Fri, 06 May 2022 UTC via an FALCON 9 launch vehicle from the Air Force Eastern Test Range (AFETR). Payload-class satellites include a variety of spacecraft equipped with specific instruments for various scientific and technological missions. These include communications satellites like Starlink; space stations such as the ISS; scientific satellites like the Hubble; Earth observation satellites from companies like Planet Labs, Umbra, and HawkEye 360; GPS; miniature CubeSats for education and research; and military/defense satellites.

Loading next visibility...
Identifier
52498, 2022-049AZ
Orbit
LEO
Country
Flag of USUS
Related business
Manufacturer
SpaceX/Seattle
Mission
Operational Commercial Communications
Bus & Motor
STARLINK, Unknown motor
Mass
297 kg wet, ~220 kg dry
Launch date (UTC)
2022-05-06 (4 years ago)
Launch vehicle
FALCON 9
Launch site
Air Force Eastern Test Range (AFETR)
Object type
Payload
Rocket body
Debris
Shape & HBR
Box + 1 Pan, 10.1 m
Radar Cross Section
13.562 m², Large (>1 m²)

Expand to show TLE details & history
Last TLE update: 1 day ago

TLE from 1 day ago
0 STARLINK-3925
1 52498U 22049AZ  25346.62005001 -.00000927  00000-0 -40166-4 0  9990
2 52498  53.2186  69.9919 0001360  88.4482 271.6666 15.08825054199384
Epoch: 2025-12-12T14:52Z
TLE epoch observation values (Epoch: 2025-12-12T14:52:52.320Z)
Latitude
-0.00004°
Longitude
125.21481°
Altitude
540.659 km
Speed
7.593 km/s
True Right ascension
04h 39m 58s
True Declination
0° 00' 00"
Sunlit
Object was in full shadow at epoch
Visualization orbit readout
Latitude
Unknown
Longitude
Unknown
Altitude
Unknown
Speed
Unknown
Apparent Right ascension
Unknown
Apparent Declination
Unknown
Sunlit
N/A
Visualization observer readout
Local Sidereal Time
12:53:37
Azimuth
Unknown
Elevation
Unknown
Doppler factor
Unknown
Orbital elements
Apogee altitude
540.975 km
Perigee altitude
539.093 km
Semi-major axis
6,918.171 km
Eccentricity
0.00014
Inclination
53.2186°
RAAN
69.9919°
Arg. of periapsis
88.4482°
True anomaly
271.65102°
Mean anomaly
271.6666°
Eccentric anomaly
271.65881°
Mean motion
3.77187 °/min
Orbital period
95.44 mins
BSTAR
-0.000040166
Loading maneuver chart data...
Computing Atmospheric mass density...
Loading historical data...
Loading historical data...
Loading historical data...
Loading historical data...
Loading historical data...
Loading historical data...
Loading historical data...

Documentation

Showing up to 5 results
|